Weather History for Medicine Lodge, KS

Change the Weather History Date:

Tuesday, March 12, 2013

  Actual Average Record
Temperature  
Mean Temperature 44 °F 46 °F  
Max Temperature 56 °F 58 °F 90 °F (1916)
Min Temperature 32 °F 33 °F -1 °F (1948)
Degree Days  
Heating Degree Days 21 19  
Month to date heating degree days 311 254  
Since 1 July heating degree days 3597 3783  
Cooling Degree Days 0 0  
Month to date cooling degree days 0 0  
Year to date cooling degree days 0 0  
Moisture  
Dew Point 30 °F    
Average Humidity 60    
Maximum Humidity 93    
Minimum Humidity 26    
Precipitation  
Precipitation 0.06 in 0.07 in 2.25 in (1947)
Month to date precipitation 2.19 0.84  
Year to date precipitation 5.74 2.59  
Snow  
Snow 0.00 in 0.00 in - ()
Month to date snowfall 0.0 0.1  
Since 1 July snowfall 24.5 8.5  
Snow Depth 0.00 in    
Sea Level Pressure  
Sea Level Pressure 30.24 in    
Wind  
Wind Speed 7 mph (North)    
Max Wind Speed 23 mph    
Max Gust Speed 30 mph    
T = Trace of Precipitation, MM = Missing Value Source: NWS Daily Summary

Daily Weather History Graph

Daily Weather History Graph

Search for Another Location

Airport:

Trip Planner

Search our weather history database for the weather conditions in past years. The results will help you decide how hot, cold, wet, or windy it might be!

Date:

Astronomy

Mar. 12, 2013 Rise Set
Actual Time 7:49 AM CDT 7:38 PM CDT
Civil Twilight 7:23 AM CDT 8:04 PM CDT
Nautical Twilight 6:53 AM CDT 8:35 PM CDT
Astronomical Twilight 6:22 AM CDT 9:05 PM CDT
Moon 7:58 AM CDT (3/12) 8:52 PM CDT (3/12)
Length of Visible Light 12h 41m
Length of Day
11h 49m
New Moon, 1% of the Moon is Illuminated
Mar 12
New Moon
Mar 19
First Quarter
Mar 27
Full
Apr 2
Last Quarter
Apr 10
New

Hourly Weather History & Observations

Time (CDT) Temp. Windchill Dew Point Humidity Pressure Visibility Wind Dir Wind Speed Gust Speed Precip Events Conditions
12:56 AM 41.0 °F 39.0 °F 35.1 °F 79% 30.06 in - North 3.5 mph - N/A   Unknown
1:56 AM 43.0 °F 37.7 °F 33.1 °F 68% 30.09 in - North 9.2 mph - N/A   Unknown
2:56 AM 42.1 °F 38.4 °F 37.9 °F 85% 30.12 in - North 5.8 mph - 0.01 in   Unknown
3:56 AM 42.1 °F 37.1 °F 39.0 °F 89% 30.14 in - NNW 8.1 mph - 0.01 in   Unknown
4:56 AM 42.1 °F - 39.9 °F 92% 30.11 in - Calm Calm - 0.04 in   Unknown
5:56 AM 41.0 °F - 39.9 °F 96% 30.13 in - Calm Calm - N/A   Unknown
6:56 AM 42.1 °F - 39.0 °F 89% 30.16 in - Calm Calm - N/A   Unknown
7:56 AM 41.0 °F 37.1 °F 37.9 °F 89% 30.20 in - North 5.8 mph - N/A   Unknown
8:56 AM 42.1 °F 40.2 °F 35.1 °F 76% 30.23 in - NE 3.5 mph - N/A   Unknown
9:56 AM 45.0 °F - 30.0 °F 56% 30.27 in - Calm Calm - N/A   Unknown
10:56 AM 46.9 °F - 27.0 °F 46% 30.29 in - Variable 3.5 mph - N/A   Unknown
11:56 AM 50.0 °F - 28.0 °F 43% 30.30 in - NW 4.6 mph - N/A   Unknown
12:56 PM 53.1 °F - 28.9 °F 40% 30.29 in - NNW 10.4 mph - N/A   Unknown
1:56 PM 53.1 °F - 30.9 °F 43% 30.29 in - NW 13.8 mph - N/A   Unknown
2:56 PM 53.1 °F - 28.9 °F 40% 30.27 in - NNE 10.4 mph - N/A   Unknown
3:56 PM 55.9 °F - 26.1 °F 32% 30.25 in - North 13.8 mph 24.2 mph N/A   Unknown
4:56 PM 55.9 °F - 21.9 °F 27% 30.25 in - NW 19.6 mph 27.6 mph N/A   Unknown
5:56 PM 54.0 °F - 19.0 °F 25% 30.26 in - North 16.1 mph 25.3 mph N/A   Unknown
6:56 PM 52.0 °F - 19.0 °F 27% 30.27 in - North 13.8 mph - N/A   Unknown
7:56 PM 46.9 °F - 21.0 °F 36% 30.30 in - North 6.9 mph - N/A   Unknown
8:56 PM 41.0 °F 38.0 °F 26.1 °F 55% 30.33 in - North 4.6 mph - N/A   Unknown
9:56 PM 39.0 °F 36.8 °F 25.0 °F 57% 30.34 in - North 3.5 mph - N/A   Unknown
10:56 PM 37.9 °F 35.5 °F 25.0 °F 60% 30.35 in - NW 3.5 mph - N/A   Unknown
11:56 PM 34.0 °F 29.8 °F 25.0 °F 70% 30.38 in - NNE 4.6 mph - N/A   Unknown